Weather History for Jonesville, VA

Change the Weather History Date:

Sunday, January 6, 2013

  Actual Average (KLOZ) Record (KLOZ)
Temperature  
Mean Temperature 40 °F 35 °F  
Max Temperature 44 °F 44 °F 69 °F (1998)
Min Temperature 35 °F 27 °F -1 °F (2014)
Degree Days  
Heating Degree Days 26 30  
Month to date heating degree days 176  
Since 1 July heating degree days 1828  
Cooling Degree Days 0 0  
Month to date cooling degree days 0  
Year to date cooling degree days 0  
Moisture  
Dew Point 32 °F    
Average Humidity 76    
Maximum Humidity 93    
Minimum Humidity 57    
Precipitation  
Precipitation 0.00 in 0.12 in 2.08 in (1995)
Month to date precipitation 0.70  
Year to date precipitation 0.70  
Sea Level Pressure  
Sea Level Pressure 30.20 in    
Wind  
Wind Speed 4 mph (WSW)    
Max Wind Speed 13 mph    
Max Gust Speed 16 mph    
Visibility 10 miles    
Events      
T = Trace of Precipitation, MM = Missing Value Source: NWS Daily Summary

Daily Weather History Graph

Daily Weather History Graph

Search for Another Location

Airport:

Trip Planner

Search our weather history database for the weather conditions in past years. The results will help you decide how hot, cold, wet, or windy it might be!

Date:

Astronomy

Jan. 06, 2013 Rise Set
Actual Time 7:45 AM EST 5:32 PM EST
Civil Twilight 7:17 AM EST 6:00 PM EST
Nautical Twilight 6:44 AM EST 6:33 PM EST
Astronomical Twilight 6:13 AM EST 7:04 PM EST
Moon 2:02 AM EST (1/6) 12:55 PM EST (1/6)
Length of Visible Light 10h 43m
Length of Day
9h 46m
Waning Crescent, 33% of the Moon is Illuminated
Jan 6
Waning Crescent
Jan 11
New
Jan 18
First Quarter
Jan 26
Full
Feb 3
Last Quarter

Hourly Weather History & Observations

Time (EST) Temp. Windchill Dew Point Humidity Pressure Visibility Wind Dir Wind Speed Gust Speed Precip Events Conditions
12:15 AM 35.6 °F - 30.2 °F 81% 30.25 in 10.0 mi Calm Calm - N/A   Unknown
12:35 AM 35.6 °F - 30.2 °F 81% 30.25 in 10.0 mi Calm Calm - N/A   Unknown
12:55 AM 35.6 °F - 32.0 °F 87% 30.23 in 10.0 mi Calm Calm - N/A   Unknown
1:15 AM 37.4 °F - 30.2 °F 75% 30.23 in 10.0 mi Calm Calm - N/A   Unknown
1:35 AM 37.4 °F 33.8 °F 32.0 °F 81% 30.24 in 10.0 mi SSW 4.6 mph - N/A   Unknown
1:55 AM 37.4 °F - 32.0 °F 81% 30.24 in 10.0 mi Calm Calm - N/A   Overcast
2:15 AM 37.4 °F - 32.0 °F 81% 30.23 in 10.0 mi Calm Calm - N/A   Overcast
2:35 AM 37.4 °F 32.8 °F 32.0 °F 81% 30.23 in 10.0 mi SW 5.8 mph - N/A   Overcast
2:55 AM 37.4 °F 32.8 °F 32.0 °F 81% 30.22 in 10.0 mi SSW 5.8 mph - N/A   Overcast
3:15 AM 37.4 °F 34.9 °F 32.0 °F 81% 30.22 in 10.0 mi WSW 3.5 mph - N/A   Overcast
3:35 AM 37.4 °F 33.8 °F 32.0 °F 81% 30.22 in 10.0 mi WSW 4.6 mph - N/A   Overcast
3:55 AM 37.4 °F 33.8 °F 32.0 °F 81% 30.21 in 10.0 mi WSW 4.6 mph - N/A   Unknown
4:15 AM 37.4 °F 34.9 °F 32.0 °F 81% 30.21 in 10.0 mi SW 3.5 mph - N/A   Unknown
4:35 AM 37.4 °F 33.8 °F 32.0 °F 81% 30.20 in 10.0 mi SW 4.6 mph - N/A   Overcast
4:55 AM 37.4 °F 34.9 °F 33.8 °F 87% 30.20 in 10.0 mi SW 3.5 mph - N/A   Overcast
5:15 AM 37.4 °F 34.9 °F 33.8 °F 87% 30.19 in 10.0 mi SW 3.5 mph - N/A   Mostly Cloudy
5:35 AM 37.4 °F 33.8 °F 33.8 °F 87% 30.19 in 10.0 mi SW 4.6 mph - N/A   Overcast
5:55 AM 37.4 °F 34.9 °F 33.8 °F 87% 30.19 in 10.0 mi SW 3.5 mph - N/A   Overcast
6:15 AM 37.4 °F 34.9 °F 33.8 °F 87% 30.19 in 10.0 mi WSW 3.5 mph - N/A   Overcast
6:35 AM 37.4 °F - 33.8 °F 87% 30.19 in 10.0 mi Calm Calm - N/A   Unknown
6:55 AM 37.4 °F 34.9 °F 33.8 °F 87% 30.19 in 10.0 mi SW 3.5 mph - N/A   Unknown
7:15 AM 37.4 °F 34.9 °F 33.8 °F 87% 30.20 in 10.0 mi WSW 3.5 mph - N/A   Unknown
7:35 AM 37.4 °F - 33.8 °F 87% 30.20 in 10.0 mi Calm Calm - N/A   Overcast
7:55 AM 37.4 °F 32.8 °F 33.8 °F 87% 30.20 in 10.0 mi SW 5.8 mph - N/A   Overcast
8:15 AM 37.4 °F 32.1 °F 33.8 °F 87% 30.20 in 10.0 mi SW 6.9 mph - N/A   Overcast
8:35 AM 37.4 °F 33.8 °F 33.8 °F 87% 30.20 in 10.0 mi SW 4.6 mph - N/A   Overcast
8:55 AM 37.4 °F 32.8 °F 35.6 °F 93% 30.21 in 10.0 mi SW 5.8 mph - N/A   Overcast
9:35 AM 37.4 °F 32.8 °F 35.6 °F 93% 30.21 in 10.0 mi SW 5.8 mph - N/A   Overcast
9:55 AM 37.4 °F 32.8 °F 35.6 °F 93% 30.21 in 10.0 mi SW 5.8 mph - N/A   Overcast
10:15 AM 37.4 °F 32.1 °F 33.8 °F 87% 30.21 in 10.0 mi SW 6.9 mph - N/A   Overcast
10:35 AM 39.2 °F 35.9 °F 33.8 °F 81% 30.21 in 10.0 mi SW 4.6 mph - N/A   Overcast
10:55 AM 39.2 °F 35.9 °F 33.8 °F 81% 30.21 in 10.0 mi SW 4.6 mph - N/A   Overcast
11:15 AM 39.2 °F 33.6 °F 32.0 °F 75% 30.20 in 10.0 mi SW 8.1 mph - N/A   Overcast
11:35 AM 39.2 °F 32.5 °F 32.0 °F 75% 30.19 in 10.0 mi WSW 10.4 mph - N/A   Overcast
11:55 AM 41.0 °F 35.8 °F 32.0 °F 70% 30.18 in 10.0 mi WSW 8.1 mph - N/A   Overcast
12:35 PM 41.0 °F 33.9 °F 32.0 °F 70% 30.16 in 10.0 mi SW 12.7 mph - N/A   Overcast
12:55 PM 41.0 °F 34.3 °F 32.0 °F 70% 30.15 in 10.0 mi SW 11.5 mph - N/A   Overcast
1:15 PM 41.0 °F 35.2 °F 32.0 °F 70% 30.14 in 10.0 mi WSW 9.2 mph - N/A   Overcast
1:35 PM 41.0 °F 34.3 °F 32.0 °F 70% 30.14 in 10.0 mi SW 11.5 mph - N/A   Overcast
1:55 PM 41.0 °F 34.3 °F 32.0 °F 70% 30.13 in 10.0 mi WSW 11.5 mph - N/A   Overcast
2:15 PM 41.0 °F 35.8 °F 32.0 °F 70% 30.13 in 10.0 mi SSW 8.1 mph - N/A   Overcast
2:35 PM 41.0 °F 34.7 °F 32.0 °F 70% 30.13 in 10.0 mi SSW 10.4 mph - N/A   Overcast
2:55 PM 42.8 °F 38.0 °F 32.0 °F 66% 30.12 in 10.0 mi SW 8.1 mph - N/A   Overcast
3:15 PM 44.6 °F 38.4 °F 30.2 °F 57% 30.11 in 10.0 mi SW 12.7 mph - N/A   Mostly Cloudy
3:35 PM 42.8 °F 37.0 °F 32.0 °F 66% 30.12 in 10.0 mi SW 10.4 mph - N/A   Partly Cloudy
3:55 PM 42.8 °F 37.0 °F 32.0 °F 66% 30.13 in 10.0 mi West 10.4 mph - N/A   Mostly Cloudy
4:15 PM 42.8 °F 38.6 °F 32.0 °F 66% 30.14 in 10.0 mi WSW 6.9 mph - N/A   Overcast
4:35 PM 42.8 °F 39.3 °F 32.0 °F 66% 30.15 in 10.0 mi WSW 5.8 mph - N/A   Overcast
4:55 PM 41.0 °F 38.0 °F 32.0 °F 70% 30.15 in 10.0 mi WSW 4.6 mph - N/A   Overcast
5:15 PM 41.0 °F 38.0 °F 32.0 °F 70% 30.15 in 10.0 mi WSW 4.6 mph - N/A   Overcast
5:35 PM 41.0 °F 38.0 °F 32.0 °F 70% 30.16 in 10.0 mi WSW 4.6 mph - N/A   Overcast
5:55 PM 41.0 °F 38.0 °F 32.0 °F 70% 30.17 in 10.0 mi WSW 4.6 mph - N/A   Overcast
6:15 PM 41.0 °F - 32.0 °F 70% 30.17 in 10.0 mi Calm Calm - N/A   Overcast
6:35 PM 41.0 °F - 32.0 °F 70% 30.17 in 10.0 mi Calm Calm - N/A   Overcast
6:55 PM 41.0 °F - 32.0 °F 70% 30.18 in 10.0 mi Calm Calm - N/A   Overcast
7:15 PM 41.0 °F 39.0 °F 32.0 °F 70% 30.19 in 10.0 mi West 3.5 mph - N/A   Overcast
7:35 PM 41.0 °F 38.0 °F 32.0 °F 70% 30.19 in 10.0 mi WSW 4.6 mph - N/A   Overcast
7:55 PM 41.0 °F 38.0 °F 32.0 °F 70% 30.20 in 10.0 mi West 4.6 mph - N/A   Overcast
8:15 PM 41.0 °F 36.4 °F 32.0 °F 70% 30.21 in 10.0 mi WNW 6.9 mph - N/A   Overcast
8:35 PM 41.0 °F 34.7 °F 32.0 °F 70% 30.22 in 10.0 mi WNW 10.4 mph - N/A   Overcast
8:55 PM 41.0 °F 33.9 °F 28.4 °F 61% 30.24 in 10.0 mi WNW 12.7 mph 16.1 mph N/A   Overcast
9:15 PM 39.2 °F 32.0 °F 28.4 °F 65% 30.25 in 10.0 mi WNW 11.5 mph 16.1 mph N/A   Overcast
9:35 PM 39.2 °F 32.0 °F 26.6 °F 61% 30.26 in 10.0 mi WNW 11.5 mph 16.1 mph N/A   Overcast
9:55 PM 37.4 °F 32.1 °F 26.6 °F 65% 30.27 in 10.0 mi WNW 6.9 mph - N/A   Overcast
10:15 PM 37.4 °F 32.1 °F 26.6 °F 65% 30.27 in 10.0 mi WNW 6.9 mph - N/A   Overcast
10:35 PM 37.4 °F 30.3 °F 26.6 °F 65% 30.28 in 10.0 mi NW 10.4 mph - N/A   Overcast
11:35 PM 35.6 °F 29.9 °F 24.8 °F 65% 30.30 in 10.0 mi NW 6.9 mph - N/A   Mostly Cloudy
11:55 PM 35.6 °F 29.9 °F 24.8 °F 65% 30.31 in 10.0 mi NW 6.9 mph - N/A   Overcast